TimeEDT,TemperatureF,Dew PointF,Humidity,Sea Level PressureIn,VisibilityMPH,Wind Direction,Wind SpeedMPH,Gust SpeedMPH,PrecipitationIn,Events,Conditions,WindDirDegrees,DateUTC
12:53 AM,46.0,39.0,76,29.60,10.0,WSW,5.8,-,N/A,,Overcast,250,2012-11-02 04:53:00
1:53 AM,46.0,39.0,76,29.59,10.0,WSW,8.1,-,N/A,,Overcast,250,2012-11-02 05:53:00
2:53 AM,46.0,37.9,73,29.59,10.0,WSW,6.9,-,N/A,,Partly Cloudy,250,2012-11-02 06:53:00
3:53 AM,46.0,37.9,73,29.59,10.0,West,6.9,-,N/A,,Scattered Clouds,260,2012-11-02 07:53:00
4:53 AM,46.0,37.0,71,29.60,10.0,West,4.6,-,N/A,,Overcast,270,2012-11-02 08:53:00
5:53 AM,46.0,37.0,71,29.60,10.0,West,6.9,-,0.00,,Mostly Cloudy,270,2012-11-02 09:53:00
6:53 AM,46.0,37.0,71,29.60,10.0,West,5.8,-,N/A,,Overcast,270,2012-11-02 10:53:00
7:53 AM,45.0,37.0,74,29.61,10.0,West,6.9,-,N/A,,Mostly Cloudy,270,2012-11-02 11:53:00
8:53 AM,46.0,37.0,71,29.62,10.0,West,6.9,-,N/A,,Overcast,260,2012-11-02 12:53:00
9:53 AM,46.9,36.0,66,29.63,10.0,West,11.5,17.3,N/A,,Overcast,270,2012-11-02 13:53:00
10:53 AM,48.9,36.0,61,29.63,10.0,West,4.6,-,N/A,,Overcast,280,2012-11-02 14:53:00
11:53 AM,48.9,32.0,52,29.62,10.0,West,6.9,-,N/A,,Mostly Cloudy,280,2012-11-02 15:53:00
12:37 PM,51.8,33.8,50,29.60,10.0,Calm,Calm,-,N/A,,Partly Cloudy,0,2012-11-02 16:37:00
12:53 PM,50.0,32.0,50,29.60,10.0,WNW,8.1,-,N/A,,Scattered Clouds,300,2012-11-02 16:53:00
1:53 PM,48.9,30.0,48,29.60,10.0,West,6.9,18.4,N/A,,Overcast,280,2012-11-02 17:53:00
2:53 PM,50.0,32.0,50,29.60,10.0,WNW,10.4,18.4,N/A,,Overcast,290,2012-11-02 18:53:00
3:53 PM,48.9,30.9,50,29.60,10.0,Variable,5.8,17.3,N/A,,Overcast,0,2012-11-02 19:53:00
4:53 PM,48.9,30.0,48,29.62,10.0,West,10.4,17.3,N/A,,Overcast,280,2012-11-02 20:53:00
5:53 PM,48.0,32.0,54,29.65,10.0,West,10.4,17.3,N/A,,Overcast,280,2012-11-02 21:53:00
6:53 PM,44.1,36.0,73,29.68,7.0,West,9.2,-,0.01,Rain,Light Rain,270,2012-11-02 22:53:00
7:53 PM,45.0,33.1,63,29.69,10.0,West,6.9,-,0.00,,Overcast,280,2012-11-02 23:53:00
8:53 PM,44.1,30.9,60,29.70,10.0,WNW,13.8,19.6,N/A,,Overcast,290,2012-11-03 00:53:00
9:53 PM,42.1,32.0,67,29.72,10.0,WNW,9.2,-,N/A,,Scattered Clouds,290,2012-11-03 01:53:00
10:53 PM,41.0,32.0,70,29.73,10.0,WNW,8.1,-,N/A,,Partly Cloudy,290,2012-11-03 02:53:00
11:53 PM,41.0,32.0,70,29.73,10.0,West,6.9,-,N/A,,Partly Cloudy,270,2012-11-03 03:53:00